Location: Natural Bridges National Monument
(37.6093°N, 109.9767°W)
Time: 14:12:53
(UTC-07:00)

Cosmos 1727 Rocket - Visible Passes

Search period start: 09 December 2016 00:00
Search period end: 19 December 2016 00:00
Orbit: 960 x 997 km, 82.9° (Epoch: 08 December)

Date Brightness Start Highest point End Pass type
(mag) Time Alt. Az. Time Alt. Az. Time Alt. Az.
09 Dec 6.4 05:20:39 10° NNE 05:25:03 20° ENE 05:29:26 10° ESE visible
09 Dec 4.1 18:47:35 10° SSE 18:53:31 49° E 18:55:43 35° NE visible
09 Dec 6.0 20:34:29 10° WSW 20:39:12 22° WNW 20:40:32 21° NW visible
10 Dec 5.4 05:46:02 10° N 05:51:44 37° ENE 05:57:25 10° SE visible
10 Dec 5.6 17:33:36 10° E 17:35:17 11° E 17:36:59 10° ENE visible
10 Dec 3.9 19:13:33 10° S 19:19:47 88° W 19:23:21 27° N visible
10 Dec 6.7 21:04:14 10° W 21:06:05 11° WNW 21:07:56 10° NW visible
11 Dec 4.3 06:12:02 10° N 06:18:13 71° E 06:24:25 10° SSE visible
11 Dec 5.0 17:56:28 10° SE 18:01:10 23° E 18:05:51 10° NE visible
11 Dec 4.8 19:40:16 10° SSW 19:46:12 47° W 19:51:00 16° N visible
12 Dec 6.5 04:54:34 10° NNE 04:58:38 18° ENE 05:02:41 10° ESE visible
12 Dec 4.0 06:38:26 10° NNW 06:44:32 62° W 06:50:39 10° S visible
12 Dec 4.2 18:21:25 10° SSE 18:27:13 44° E 18:33:01 10° NNE visible
12 Dec 5.9 20:07:50 10° SW 20:12:49 25° WNW 20:17:48 10° NNW visible
13 Dec 5.6 05:19:48 10° NNE 05:25:21 33° ENE 05:30:54 10° SE visible
13 Dec 3.9 18:47:15 10° S 18:53:26 84° E 18:59:39 10° N visible
13 Dec 6.7 20:36:59 10° W 20:39:39 13° WNW 20:42:19 10° NW visible
14 Dec 4.4 05:45:43 10° N 05:51:53 63° E 05:58:02 10° SSE visible
14 Dec 5.1 17:30:32 10° SE 17:34:54 20° E 17:39:15 10° NE visible
14 Dec 4.7 19:13:49 10° SSW 19:19:50 52° W 19:25:52 10° N visible
15 Dec 6.5 04:28:33 10° NNE 04:32:12 16° ENE 04:35:52 10° ESE visible
15 Dec 3.9 06:12:03 10° NNW 06:18:13 70° W 06:24:24 10° S visible
15 Dec 4.4 17:55:15 10° SSE 18:00:56 39° E 18:06:35 10° NNE visible
15 Dec 5.8 19:41:13 10° SW 19:46:25 28° WNW 19:51:37 10° NNW visible
16 Dec 5.7 04:53:35 10° NNE 04:58:58 30° ENE 05:04:21 10° SE visible
16 Dec 4.5 06:38:48 10° NNW 06:44:23 36° W 06:50:00 10° SSW visible
16 Dec 3.9 18:20:57 10° S 18:27:07 75° E 18:33:16 10° N visible
16 Dec 6.6 20:09:58 10° W 20:13:12 14° WNW 20:16:27 10° NW visible
17 Dec 4.6 05:19:24 10° N 05:25:31 57° E 05:31:39 10° SSE visible
17 Dec 4.5 18:47:24 10° SSW 18:53:29 58° W 18:59:34 10° N visible
18 Dec 6.6 04:02:36 10° NE 04:05:47 14° ENE 04:08:58 10° E visible
18 Dec 3.9 05:45:41 10° N 05:51:54 78° W 05:58:08 10° S visible
18 Dec 4.6 17:29:07 10° SSE 17:34:38 35° E 17:40:08 10° NNE visible
18 Dec 5.7 19:14:39 10° SW 19:20:02 31° WNW 19:25:25 10° NNW visible
